[[{"header":{"parameterUnit":"m.s-1","parameterCategory":1,"la1":30.2991,"la2":30.254,"lo1":-89.0895,"lo2":-89.0444,"dy":0.0017,"dx":0.0017,"nx":28,"ny":28,"refTime":"2024-12-09T03:00:00:Z","depth":0,"parameterNumber":2,"parameterNumberName":"U-component_of_WINDS"},"data":[0,0,0,0,0,0,0,0,0,0,0,0,0,0,0,0,0,0,0,0,0,0,0,0,0,0,0,0,0,0,0,0,0,0,0,0,0,0,0,0,0,0,0,0,0,0,0,0,0,0,0,0,0,0,0,0,0,0,-2.7566,-2.7566,0,-2.7594,-2.7594,-2.7594,-2.7567,-2.7566,-2.7565,-2.7564,-2.7591,-2.7593,-2.7595,0,0,0,0,0,0,0,0,0,0,0,0,0,-2.7488,-2.7489,-2.7566,-2.7566,-2.7566,-2.7594,-2.7594,-2.7594,-2.7567,-2.7566,-2.7565,-2.7564,-2.7591,-2.7593,-2.7595,0,0,0,0,0,0,0,0,0,0,0,0,0,-2.7519,-2.749,-2.7566,-2.7556,-2.7556,-2.7593,-2.7594,-2.7594,-2.7568,-2.7566,-2.7564,-2.7563,-2.759,-2.7592,-2.7595,-2.7643,0,0,-2.7603,-2.7604,0,0,0,0,0,0,0,0,-2.7517,-2.7522,-2.7557,-2.7557,-2.7556,-2.7575,-2.7576,-2.7611,-2.7568,-2.7563,-2.7564,-2.7562,-2.7587,-2.759,-2.7598,-2.7644,-2.7645,-2.7603,-2.7605,-2.7606,-2.7606,0,0,0,0,0,0,0,-2.7515,-2.7521,-2.7577,-2.7558,-2.7557,-2.755,-2.7553,-2.7583,-2.7584,-2.7563,-2.7562,-2.7565,-2.7587,-2.7596,-2.7599,-2.7646,-2.7603,-2.7605,-2.7607,-2.7608,-2.7731,-2.7733,0,0,0,0,0,0,-2.7514,-2.7519,-2.7576,-2.7577,-2.7533,-2.7553,-2.7556,-2.7571,-2.7583,-2.7584,-2.7567,-2.7564,-2.7592,-2.7596,-2.76,-2.7656,-2.7606,-2.7608,-2.761,-2.7729,-2.7732,-2.7733,0,0,0,0,0,0,-2.7513,-2.752,-2.7575,-2.7548,-2.7554,-2.7556,-2.7573,-2.7572,-2.7582,-2.7586,-2.7586,-2.7576,-2.7591,-2.7596,-2.7632,-2.7656,-2.7609,-2.7612,-2.7727,-2.773,-2.7732,-2.7769,0,0,0,0,0,0,-2.7511,-2.7519,-2.7538,-2.7548,-2.7556,-2.7607,-2.7574,-2.7574,-2.7586,-2.7583,-2.7595,-2.7595,-2.759,-2.7629,-2.7635,-2.7659,-2.7614,-2.7725,-2.7729,-2.7732,-2.7765,-2.7772,-2.7778,0,0,0,0,0,-2.7508,-2.7547,-2.7539,-2.7546,-2.7579,-2.7609,-2.7613,-2.7607,-2.7589,-2.7607,-2.7609,-2.7595,-2.7653,-2.7632,-2.7639,-2.7665,-2.7724,-2.7728,-2.7731,-2.7762,-2.7771,-2.7778,0,0,0,0,0,0,-2.7538,-2.7548,-2.7539,-2.7583,-2.7595,-2.7604,-2.7627,-2.7616,-2.7634,-2.763,-2.7622,-2.7625,-2.7663,-2.7667,-2.7644,-2.7711,-2.7685,-2.7691,-2.7706,-2.7714,-2.7721,-2.7718,-2.7616,0,0,0,0,0,-2.755,-2.7573,-2.7581,-2.7618,-2.7625,-2.7625,-2.7638,-2.7632,-2.7645,-2.7649,-2.7655,-2.7667,-2.7688,-2.7702,-2.7721,-2.7766,-2.7768,-2.7787,-2.7794,-2.7799,-2.7803,-2.7826,-2.7835,-2.7746,-2.7746,-2.7746,0,0,-2.7574,-2.7582,-2.7598,-2.7624,-2.7633,-2.7657,-2.7629,-2.7656,-2.7674,-2.7653,-2.7687,-2.7692,-2.7705,-2.7746,-2.7764,-2.7751,-2.7828,-2.7804,-2.7808,-2.7809,-2.7831,-2.784,-2.7847,-2.7749,-2.7748,-2.7748,0,0,-2.763,-2.764,-2.7671,-2.7681,-2.7695,-2.7695,-2.7703,-2.7714,-2.7716,-2.7751,-2.7736,-2.7756,-2.7793,-2.7802,-2.7812,-2.7873,-2.786,-2.788,-2.7912,-2.7935,-2.7942,-2.7948,-2.7969,-2.7976,-2.7884,-2.7884,-2.7884,0,-2.7658,-2.7694,-2.7689,-2.7717,-2.7728,-2.7712,-2.7744,-2.7754,-2.7773,-2.7782,-2.7767,-2.7813,-2.782,-2.7862,-2.7877,-2.7886,-2.7894,-2.7877,-2.7942,-2.7948,-2.7953,-2.7973,-2.798,-2.7886,-2.7886,-2.7886,-2.7886,0,-2.7728,-2.7753,-2.7777,-2.7797,-2.7812,-2.7841,-2.784,-2.7855,-2.7849,-2.7851,-2.7885,-2.7894,-2.7915,-2.7925,-2.7919,-2.7967,-2.7958,-2.7943,-2.7916,-2.7964,-2.7982,-2.7989,-2.789,-2.7889,-2.7888,-2.7888,0,0,-2.7802,-2.7819,-2.7828,-2.7836,-2.7851,-2.787,-2.7899,-2.792,-2.7933,-2.7948,-2.7971,-2.8003,-2.7989,-2.8,-2.7995,-2.8016,-2.8062,-2.7998,-2.7998,-2.8008,-2.8113,-2.8123,-2.8132,-2.8054,-2.8055,-2.8056,-2.8112,0,-2.7857,-2.7908,-2.7904,-2.7951,-2.7974,-2.796,-2.7985,-2.7996,-2.7999,-2.8018,-2.802,-2.8042,-2.8023,-2.803,-2.8049,-2.8052,-2.8082,-2.8048,-2.8074,-2.8075,-2.807,-2.8141,-2.8152,-2.8204,-2.8119,-2.812,-2.8121,0,-2.7928,-2.7946,-2.7996,-2.8007,-2.8016,-2.8039,-2.8057,-2.8077,-2.8089,-2.809,-2.8103,-2.8094,-2.8123,-2.8097,-2.8136,-2.8113,-2.8123,-2.8126,-2.8128,-2.8129,-2.81,-2.8143,-2.822,-2.8227,-2.8132,-2.8131,-2.813,0,-2.7976,-2.8012,-2.8046,-2.8054,-2.8068,-2.8085,-2.8091,-2.8103,-2.8115,-2.8132,-2.814,-2.8159,-2.817,-2.8185,-2.8182,-2.8164,-2.8221,-2.8195,-2.8221,-2.8221,-2.8232,-2.8231,-2.8311,-2.8242,-2.8242,-2.8242,-2.8242,0,-2.8037,-2.8068,-2.8067,-2.8088,-2.8122,-2.8118,-2.8151,-2.8156,-2.8166,-2.8187,-2.8176,-2.8196,-2.8192,-2.8212,-2.821,-2.8241,-2.8247,-2.8247,-2.8245,-2.8247,-2.8247,-2.8252,-2.8248,-2.8244,-2.8243,-2.8243,-2.8243,0,-2.8095,-2.8096,-2.8132,-2.8143,-2.8147,-2.8171,-2.818,-2.82,-2.8202,-2.8228,-2.8234,-2.8237,-2.826,-2.8259,-2.8285,-2.8283,-2.8322,-2.8317,-2.8317,-2.8316,-2.8341,-2.8338,-2.8426,-2.8436,-2.8362,-2.8363,-2.8364,0,-2.8133,-2.8156,-2.817,-2.8184,-2.8191,-2.8214,-2.8227,-2.8224,-2.8238,-2.8254,-2.8271,-2.8293,-2.831,-2.8347,-2.8351,-2.8371,-2.8365,-2.8395,-2.8368,-2.8368,-2.8364,-2.8362,-2.8364,-2.8399,-2.84,-2.8401,-2.8402,0,-2.82,-2.82,-2.8219,-2.8239,-2.8255,-2.8271,-2.8285,-2.8297,-2.8295,-2.8311,-2.8335,-2.8348,-2.8374,-2.8396,-2.8415,-2.8421,-2.8411,-2.841,-2.8417,-2.8417,-2.8416,-2.8416,-2.833,-2.8408,-2.8407,-2.8407,-2.8406,-2.8406,-2.8248,-2.8268,-2.8281,-2.8303,-2.8313,-2.8327,-2.8345,-2.835,-2.837,-2.8391,-2.8388,-2.8414,-2.8426,-2.8451,-2.8459,-2.8478,-2.8468,-2.8478,-2.848,-2.8482,-2.8484,-2.8415,-2.8482,-2.8482,-2.8482,-2.8482,-2.8481,0,-2.8313,-2.8321,-2.8341,-2.8362,-2.8379,-2.8369,-2.8385,-2.8399,-2.8422,-2.8435,-2.8452,-2.8479,-2.85,-2.8506,-2.8526,-2.854,-2.8536,-2.8546,-2.8543,-2.8545,-2.8493,-2.8485,-2.8549,-2.8549,-2.8549,-2.8549,-2.8549,-2.8549,-2.8349,-2.8381,-2.8383,-2.842,-2.8428,-2.8453,-2.8463,-2.8475,-2.8485,-2.8515,-2.8533,-2.8537,-2.8547,-2.8567,-2.8586,-2.8587,-2.8594,-2.8605,-2.8604,-2.8555,-2.8549,-2.8542,-2.8534,-2.8607,-2.8607,-2.8654,-2.8654,-2.8655]},{"header":{"parameterUnit":"m.s-1","parameterCategory":1,"la1":30.2991,"la2":30.254,"lo1":-89.0895,"lo2":-89.0444,"dy":0.0017,"dx":0.0017,"nx":28,"ny":28,"refTime":"2024-12-09T03:00:00:Z","depth":0,"parameterNumber":3,"parameterNumberName":"V-component_of_WINDS"},"data":[0,0,0,0,0,0,0,0,0,0,0,0,0,0,0,0,0,0,0,0,0,0,0,0,0,0,0,0,0,0,0,0,0,0,0,0,0,0,0,0,0,0,0,0,0,0,0,0,0,0,0,0,0,0,0,0,0,0,2.1897,2.1897,0,2.1908,2.1908,2.1908,2.1881,2.188,2.1879,2.1878,2.1888,2.1889,2.189,0,0,0,0,0,0,0,0,0,0,0,0,0,2.1852,2.1853,2.1897,2.1897,2.1897,2.1908,2.1908,2.1908,2.1881,2.188,2.1879,2.1878,2.1888,2.1889,2.189,0,0,0,0,0,0,0,0,0,0,0,0,0,2.1868,2.1853,2.1897,2.1885,2.1884,2.1908,2.1908,2.1908,2.1881,2.188,2.1878,2.1877,2.1887,2.1889,2.189,2.1927,0,0,2.1895,2.1896,0,0,0,0,0,0,0,0,2.1867,2.187,2.1886,2.1886,2.1884,2.1892,2.1896,2.1914,2.1881,2.1882,2.1878,2.1876,2.189,2.1891,2.1896,2.1927,2.1927,2.1896,2.1897,2.1897,2.1898,0,0,0,0,0,0,0,2.1866,2.1869,2.1901,2.1887,2.1885,2.1879,2.188,2.1899,2.1893,2.1882,2.188,2.1882,2.1889,2.1895,2.1896,2.1928,2.1895,2.1897,2.1898,2.1899,2.1992,2.1993,0,0,0,0,0,0,2.1867,2.1868,2.1901,2.1901,2.1873,2.1881,2.1882,2.1891,2.1893,2.1892,2.1883,2.188,2.1893,2.1895,2.1897,2.1941,2.1897,2.1899,2.19,2.199,2.1992,2.1994,0,0,0,0,0,0,2.1866,2.187,2.19,2.1885,2.1888,2.1883,2.1893,2.1892,2.1897,2.1894,2.1892,2.1889,2.1892,2.1894,2.192,2.1941,2.1899,2.1901,2.1988,2.1991,2.1993,2.203,0,0,0,0,0,0,2.1865,2.187,2.1883,2.1885,2.1889,2.1924,2.1894,2.1893,2.19,2.1897,2.19,2.1899,2.1891,2.1918,2.1922,2.1943,2.1902,2.1986,2.1989,2.1992,2.2027,2.2033,2.2038,0,0,0,0,0,2.1863,2.1892,2.1884,2.1888,2.1905,2.1925,2.1927,2.1918,2.1902,2.1916,2.1914,2.1899,2.1938,2.1921,2.1925,2.1947,2.1985,2.1989,2.1992,2.2024,2.2032,2.2038,0,0,0,0,0,0,2.1891,2.1892,2.1883,2.1913,2.1919,2.192,2.1937,2.1926,2.1936,2.1933,2.1921,2.1922,2.195,2.1951,2.1931,2.1983,2.1959,2.1963,2.1982,2.1989,2.1995,2.1995,2.1904,0,0,0,0,0,2.1901,2.1917,2.1916,2.1943,2.1947,2.1942,2.195,2.1943,2.1948,2.195,2.195,2.1956,2.197,2.198,2.1992,2.2026,2.2028,2.2044,2.205,2.2054,2.2059,2.208,2.2087,2.2005,2.2005,2.2005,0,0,2.1921,2.1924,2.1934,2.1949,2.1953,2.197,2.1944,2.1962,2.1976,2.1953,2.1978,2.1979,2.1984,2.2016,2.2029,2.2017,2.2082,2.2059,2.2063,2.2064,2.2084,2.2092,2.2099,2.2007,2.2007,2.2006,0,0,2.1968,2.197,2.1994,2.1999,2.2006,2.2003,2.2009,2.2012,2.2012,2.2037,2.2022,2.2037,2.206,2.2066,2.2072,2.2124,2.2111,2.2128,2.2159,2.218,2.2186,2.2192,2.2213,2.222,2.2132,2.2132,2.2132,0,2.1992,2.2017,2.2008,2.2029,2.2037,2.2018,2.2043,2.2048,2.2059,2.2065,2.2051,2.2083,2.2085,2.2119,2.2132,2.2136,2.2144,2.2128,2.2186,2.2192,2.2197,2.2217,2.2224,2.2134,2.2134,2.2134,2.2134,0,2.2048,2.2066,2.2085,2.2097,2.2107,2.2129,2.2124,2.2135,2.2128,2.2127,2.2154,2.2156,2.2171,2.2178,2.2169,2.2211,2.2204,2.2188,2.2164,2.2207,2.2226,2.2233,2.2137,2.2137,2.2136,2.2135,0,0,2.2111,2.212,2.2127,2.2134,2.2141,2.2155,2.2178,2.2193,2.2204,2.2212,2.2232,2.2253,2.224,2.2247,2.224,2.2258,2.2302,2.224,2.224,2.2253,2.235,2.2363,2.2372,2.2293,2.2294,2.2295,2.235,0,2.2159,2.2198,2.2192,2.223,2.2248,2.2233,2.2253,2.226,2.226,2.2275,2.2274,2.2291,2.2271,2.2276,2.2293,2.2293,2.2321,2.2288,2.2312,2.2313,2.2313,2.2381,2.2394,2.2445,2.2357,2.2358,2.2359,0,2.2219,2.2232,2.2273,2.228,2.2287,2.2305,2.232,2.2335,2.2343,2.2342,2.2351,2.2341,2.2365,2.234,2.2374,2.2352,2.2361,2.2363,2.2365,2.2368,2.234,2.2387,2.2461,2.247,2.237,2.2369,2.2368,0,2.2264,2.2291,2.232,2.2325,2.2334,2.2348,2.2352,2.2359,2.237,2.2382,2.2389,2.2404,2.2412,2.2424,2.2419,2.2401,2.2455,2.2428,2.2455,2.2456,2.2468,2.2468,2.2547,2.2472,2.2471,2.2471,2.2471,0,2.2318,2.2345,2.234,2.2358,2.2388,2.238,2.241,2.2412,2.2419,2.2438,2.2424,2.2442,2.2434,2.2451,2.2447,2.2477,2.248,2.2481,2.248,2.2483,2.2483,2.249,2.2487,2.2473,2.2473,2.2473,2.2472,0,2.2374,2.2371,2.2402,2.2409,2.2411,2.2433,2.2439,2.2456,2.2456,2.248,2.2485,2.2484,2.2504,2.25,2.2522,2.2519,2.2558,2.2551,2.2555,2.2554,2.2582,2.2581,2.267,2.2682,2.2597,2.2598,2.2599,0,2.2409,2.243,2.2439,2.2451,2.2457,2.2476,2.2487,2.2481,2.2493,2.2506,2.2523,2.2542,2.2557,2.259,2.2592,2.2609,2.2604,2.2634,2.2606,2.261,2.2607,2.2607,2.261,2.264,2.2641,2.2641,2.2642,0,2.2474,2.2472,2.2489,2.2507,2.2521,2.2534,2.2546,2.2556,2.2551,2.2566,2.2587,2.2599,2.2623,2.2643,2.266,2.2664,2.2653,2.2651,2.2658,2.2663,2.2665,2.2667,2.2572,2.2649,2.2648,2.2648,2.2647,2.2647,2.2522,2.254,2.2551,2.2571,2.2579,2.2591,2.2609,2.2612,2.2629,2.2649,2.2644,2.2669,2.2679,2.27,2.2707,2.2727,2.2716,2.2726,2.2729,2.2732,2.2737,2.2661,2.2729,2.2729,2.2729,2.2729,2.2729,0,2.2587,2.2594,2.2613,2.2631,2.2647,2.2636,2.2649,2.2663,2.2686,2.2696,2.2712,2.2738,2.2758,2.2762,2.2781,2.2797,2.2792,2.2802,2.2802,2.2803,2.2744,2.2737,2.2805,2.2805,2.2805,2.2805,2.2805,2.2805,2.2624,2.2655,2.2656,2.2692,2.2698,2.2723,2.2732,2.2744,2.2753,2.2782,2.28,2.2802,2.2811,2.2831,2.2849,2.285,2.2859,2.2871,2.287,2.2815,2.2807,2.28,2.2793,2.2872,2.2872,2.2928,2.2928,2.2929]}]]